Helicity
181 236 217 218 232 215 199 164 142 142 145 137 129 126 137 145 147 155 148 151 166 163
252 255 251 234 211 206 191 164 149 138 111 109 132 138 155 161 159 176 168 153 154 152
269 294 232 217 237 203 199 183 141 119 174 160 173 159 169 143 144 157 153 157 155 149
258 339 335 298 326 149 177 229 227 164 154 111 95 145 127 132 139 135 136 155 158 157
239 274 273 298 262 241 183 172 196 201 134 129 131 140 149 137 137 136 150 153 169 153
215 208 225 245 240 223 221 203 172 159 154 143 133 135 136 135 152 169 183 187 169 157
171 165 176 186 171 170 156 140 135 131 120 112 113 125 126 145 170 174 173 181 190 162
138 155 164 159 143 135 121 110 104 109 104 101 102 109 119 138 149 164 172 165 161 169
135 135 129 127 116 113 110 102 98 92 93 99 104 107 115 130 158 161 156 162 178 162
133 136 127 120 117 100 90 95 86 82 85 90 101 102 115 134 164 157 141 134 108 101
150 141 134 126 104 100 104 90 87 81 79 95 96 110 139 144 160 149 124 109 93 86
161 156 142 125 111 109 108 100 90 91 81 94 100 126 131 150 145 132 115 85 60 52
163 165 146 134 127 121 123 103 103 99 96 89 110 124 122 126 121 109 94 68 48 32
156 154 151 157 157 129 116 114 112 112 111 108 111 108 90 83 98 87 75 56 44 41
Wind_Speed
39 37 36 33 35 37 38 37 39 43 47 52 56 58 59 60 58 55 55 52 50 52
42 38 34 33 31 32 31 35 40 44 46 48 54 57 57 59 59 55 53 52 51 53
42 36 35 31 34 36 34 36 43 51 56 57 55 57 57 59 56 57 55 53 53 52
36 41 40 40 39 41 39 39 51 56 55 54 54 54 56 56 56 57 54 51 51 54
29 30 33 36 37 36 44 52 49 47 50 52 54 55 58 57 55 54 53 52 52 51
34 33 33 33 38 42 44 47 47 50 49 52 54 56 57 55 51 50 50 48 47 48
26 28 29 30 33 36 39 41 44 47 49 50 52 53 54 49 47 46 47 46 45 45
21 23 24 26 29 32 35 38 41 43 46 47 47 47 47 44 41 41 41 42 43 43
19 20 21 24 27 30 35 39 41 43 44 46 47 47 46 41 38 38 38 39 37 37
20 20 20 24 27 31 35 39 41 42 44 46 46 45 42 34 32 33 32 29 29 28
23 23 23 25 27 31 35 38 41 42 43 43 44 41 36 35 34 32 31 30 28 27
23 23 24 27 29 33 37 41 42 42 41 39 40 34 31 30 29 27 26 26 25 22
23 25 27 29 32 38 39 40 41 40 36 33 34 28 24 25 24 24 24 24 23 18
25 26 29 31 34 40 40 41 41 39 35 34 28 22 20 22 21 21 20 20 19 20
Wind_Direction
272 272 278 279 278 285 290 296 301 306 309 310 312 313 314 313 314 316 315 313 315 316
272 273 274 277 283 288 295 300 305 309 311 314 316 313 315 313 312 315 316 313 314 315
276 276 277 276 282 288 296 303 307 309 309 310 313 312 315 313 314 314 313 313 313 315
277 276 276 282 284 288 296 303 307 305 307 310 310 313 313 314 313 312 313 313 314 314
282 283 283 288 290 293 298 304 307 310 309 312 312 313 312 311 313 313 313 312 314 314
280 280 283 287 293 298 301 303 307 308 311 311 312 312 312 313 313 314 314 315 315 314
284 285 288 293 298 303 306 308 310 311 312 313 315 316 314 315 316 318 317 316 316 316
289 292 294 299 305 309 311 313 315 316 317 318 319 319 317 317 318 320 320 322 319 318
290 292 295 302 308 312 314 316 317 317 318 319 320 320 319 318 317 320 320 320 322 322
288 291 296 304 310 313 315 316 317 318 319 319 320 321 321 321 321 322 324 326 327 328
283 288 296 303 309 314 316 317 318 319 320 321 322 322 322 321 319 319 319 321 324 327
277 283 291 298 306 312 315 315 317 319 320 321 322 324 325 324 324 324 324 326 328 331
277 281 287 296 304 311 315 316 318 320 322 323 323 324 327 329 325 323 325 327 329 338
281 284 290 296 303 309 311 314 317 318 319 318 322 324 323 320 326 323 322 324 329 332